Weather in Pereleshino

Russia / Voronezh Oblast     51°44′14″N   40°08′21″E
temp.,
°C
wind,
m/s
gust,
m/s
humid.,
%
clouds,
%
prec.,
mm/h
press.,
hPa
HPBL,
m
18 september, sat
sat1800:00+9e3578100 0.9 1018263
03:00+8e4785100 1.4 1018348
06:00+7e51078100 0.6 1019450
09:00+8e51067100 0.6 1020594
12:00+9e5955100 0.0 1021663
15:00+9ese4857100 0.3 1020575
18:00+8ese41071100 0.5 1019395
21:00+8e51273100 1.3 1020472
19 september, sun
sun1900:00+8e71268100 0.4 1019409
03:00+9ese71462100 0.4 1018451
06:00+9ese71565100 0.0 1017479
09:00+11ese81546100 0.0 1017638
12:00+13se71155100 0.8 1016841
15:00+11ese71380100 2.0 1015804
18:00+11ese71494100 7.3 1013742
21:00+11ese81693100 16.1 1011849
20 september, mon
mon2000:00+13se71384100 0.7 1010605
03:00+12se41087100 1.4 1009381
06:00+13sse4897100 0.2 1008415
09:00+14se5788100 0.3 1009493
12:00+16se567998 0.1 1008763
15:00+14ese61093100 3.1 1008568
18:00+13ese699398 0.7 1008369
21:00+12se3497100 1.8 1009145
21 september, tue
tue2100:00+12wsw3591100 0.6 1009222
03:00+11sw2394100 3.3 1010166
06:00+9sw36945 0.5 1010169
09:00+11sw467179 0.5 1011654
12:00+14sw5658100 0.0 10111325
15:00+13sw5767100 0.0 10111018
18:00+11sw4778100 0.0 1012733
21:00+9wsw3685100 0.0 1012253
22 september, wed
wed2200:00+9wsw4877100 0.0 1012547
03:00+8sw4779100 0.0 1011631
06:00+7sw3683100 0.0 1011516
09:00+7wsw5680100 0.1 1012989
12:00+7sw5677100 0.1 1012882
15:00+6sw5686100 0.1 1013695
18:00+6sw4786100 0.1 1013509
21:00+7sw4786100 0.1 1013436